Regional Weather Roundup
Issued by NWS

Home | Current Version | Previous Version | Graphics & Text | Print | Product List | Glossary On
Versions: 1 2 3 4 5 6 7 8 9 10 11 12 13 14 15 16 17 18 19 20 21 22 23 24 25 26 27 28 29 30 31 32 33 34 35 36 37 38 39 40 41 42 43 44 45 46 47 48 49 50
000
ASUS43 KOAX 011910
RWRNE

WEATHER ROUNDUP FOR NEBRASKA
NATIONAL WEATHER SERVICE OMAHA NE
200 PM CDT WED OCT 01 2014

NOTES: SATELLITE DATA IS BEING USED TO AUGMENT CLOUD COVER ABOVE
       12000 FEET.
       "FAIR" INDICATES FEW OR NO CLOUDS BELOW 12,000 FEET WITH NO
       SIGNIFICANT WEATHER AND/OR OBSTRUCTIONS TO VISIBILITY.

  * THESE STATIONS DO NOT REPORT WEATHER SUCH AS RAIN...SNOW OR FOG.

NEZ001>004-019>022-054>056-012000-
NEBRASKA PANHANDLE

CITY           SKY/WX    TMP DP  RH WIND       PRES   REMARKS
SCOTTSBLUFF    SUNNY     65  43  44 W8        29.87F
ALLIANCE       MOSUNNY   63  44  50 CALM      29.85F
CHADRON        CLOUDY    62  47  57 NW9       29.86F
KIMBALL        CLOUDY    60  39  45 N8        29.87F
SIDNEY         PTSUNNY   65  44  46 NE9       29.87F
$$

NEZ057>060-069>072-079>082-012000-
SOUTHWEST NEBRASKA

CITY           SKY/WX    TMP DP  RH WIND       PRES   REMARKS
NORTH PLATTE   MOSUNNY   74  45  35 NE6       29.80F
IMPERIAL       MOSUNNY   70  43  37 N6        29.82F
LEXINGTON      PTSUNNY   73  53  49 CALM      29.78F
MCCOOK         MOSUNNY   75  47  36 VRB3      29.79F
OGALLALA       SUNNY     71  46  41 CALM      29.82F
$$

NEZ005>010-023>029-035>040-094-012000-
NORTH CENTRAL NEBRASKA

CITY           SKY/WX    TMP DP  RH WIND       PRES   REMARKS
VALENTINE      PTSUNNY   70  47  43 N10G17    29.82F
AINSWORTH      SUNNY     69  48  48 NW8       29.81F
BROKEN BOW     PTSUNNY   76  49  38 NW7       29.79F
O`NEILL        SUNNY     72  52  49 N7        29.78S
ORD            PTSUNNY   74  50  42 NE7       29.76F
THEDFORD       SUNNY     72  48  43 N8        29.82F
$$

NEZ041-046>049-061>064-073>077-083>087-012000-
SOUTH CENTRAL NEBRASKA

CITY           SKY/WX    TMP DP  RH WIND       PRES   REMARKS
GRAND ISLAND   PTSUNNY   76  49  38 CALM      29.77S
AURORA         PTSUNNY   76  55  47 CALM      29.76S
HASTINGS       PTSUNNY   76  52  43 NE3       29.75F
HEBRON         MOSUNNY   76  59  56 E3        29.73F
HOLDREGE       PTSUNNY   76  50  39 CALM      29.76F
KEARNEY *      PTSUNNY   73  54  49 W3        29.78F
YORK           PTSUNNY   73  63  68 CALM      29.75F
$$

NEZ011>018-030>034-042>045-012000-
NORTHEAST NEBRASKA

CITY           SKY/WX    TMP DP  RH WIND       PRES   REMARKS
NORFOLK        MOSUNNY   75  55  49 CALM      29.74F
ALBION         MOSUNNY   73  55  53 CALM      29.76F
BLAIR          MOSUNNY   76  63  63 SE5       29.73F
COLUMBUS *     MOSUNNY   75  57  53 NW3       29.75F
FREMONT        MOSUNNY   73  62  68 SE5       29.74F
TEKAMAH        PTSUNNY   77  63  61 S8        29.72F
WAYNE          SUNNY     78  56  46 SW5       29.74F
$$

NEZ050>053-065>068-078-088>093-012000-
SOUTHEAST NEBRASKA

CITY           SKY/WX    TMP DP  RH WIND       PRES   REMARKS
LINCOLN        MOSUNNY   72  63  73 E6        29.75F
OMAHA EPPLEY   PTSUNNY   74  62  66 S8        29.73F
BEATRICE       MOSUNNY   75  64  69 E5        29.73F
FALLS CITY     MOSUNNY   78  65  63 SE3       29.72F
NEBRASKA CITY  PTSUNNY   73  63  71 CALM      29.74F
PLATTSMOUTH      N/A     70  62  76 CALM      29.75F
$$

NEZ044-045-051>053-067-012000-
OMAHA AREA

CITY           SKY/WX    TMP DP  RH WIND       PRES   REMARKS
OMAHA EPPLEY   PTSUNNY   74  62  66 S8        29.73F
BLAIR          MOSUNNY   76  63  63 SE5       29.73F
FREMONT        MOSUNNY   73  62  68 SE5       29.74F
MILLARD        MOSUNNY   74  65  72 SE7       29.73F
OFFUTT AFB     MOSUNNY   72  67  83 E6        29.73F
PLATTSMOUTH      N/A     70  62  76 CALM      29.75F
WAHOO          FAIR      73  62  66 CALM      29.74F
$$



USA.gov is the U.S. government's official web portal to all federal, state and local government web resources and services.